When you browse on this site, cookies collect data to enhance your experience and personalize the content and advertising you see.
Visit our Privacy Policy to learn more. By continuing to use the site, you agree to this use of cookies and data.
  • In Hungary
  • List of Countries
  • For 7 days
  • Water Temperature
  • Satellite Maps
  • Weather Map
  • News
  • Weather Widgets
  • user-avatar
    Login

    Hourly Weather Benidorm

    Today, 17 December, Monday

    Time Temperature Precipitation Wind Pressure Humidity
    00:00 +11°C° 0 mm 7 mps 764 mmHg 80%
    01:00 +11°C° 0 mm 8 mps 764 mmHg 80%
    02:00 +10°C° 0 mm 8 mps 765 mmHg 81%
    03:00 +10°C° 0 mm 9 mps 765 mmHg 81%
    04:00 +10°C° 0 mm 8 mps 766 mmHg 83%
    05:00 +9°C° 0 mm 8 mps 766 mmHg 84%
    06:00 +8°C° 0 mm 6 mps 767 mmHg 85%
    07:00 +9°C° 0 mm 5 mps 767 mmHg 79%
    08:00 +9°C° 0 mm 5 mps 767 mmHg 73%
    09:00 +11°C° 0 mm 4 mps 768 mmHg 68%
    10:00 +13°C° 0 mm 4 mps 768 mmHg 57%
    11:00 +14°C° 0 mm 3 mps 768 mmHg 46%
    12:00 +17°C° 0 mm 3 mps 768 mmHg 36%
    13:00 +17°C° 0 mm 3 mps 767 mmHg 33%
    14:00 +18°C° 0 mm 2 mps 767 mmHg 31%
    15:00 +18°C° 0 mm 2 mps 767 mmHg 29%
    16:00 +16°C° 0 mm 2 mps 767 mmHg 39%
    17:00 +14°C° 0 mm 2 mps 767 mmHg 48%
    18:00 +11°C° 0 mm 3 mps 767 mmHg 58%
    19:00 +11°C° 0 mm 3 mps 768 mmHg 65%
    20:00 +10°C° 0 mm 3 mps 768 mmHg 72%
    21:00 +10°C° 0 mm 3 mps 768 mmHg 78%
    22:00 +9°C° 0 mm 3 mps 768 mmHg 81%
    23:00 +9°C° 0 mm 3 mps 768 mmHg 83%

    Tomorrow, 18 December, Tuesday

    Time Temperature Precipitation Wind Pressure Humidity
    00:00 +8°C° 0 mm 4 mps 768 mmHg 86%
    01:00 +8°C° 0 mm 4 mps 767 mmHg 87%
    02:00 +8°C° 0 mm 4 mps 767 mmHg 88%
    03:00 +7°C° 0 mm 4 mps 766 mmHg 89%
    04:00 +7°C° 0 mm 4 mps 766 mmHg 91%
    05:00 +8°C° 0 mm 3 mps 766 mmHg 92%
    06:00 +8°C° 0 mm 3 mps 766 mmHg 94%
    07:00 +9°C° 0 mm 3 mps 766 mmHg 92%
    08:00 +11°C° 0 mm 3 mps 766 mmHg 91%
    09:00 +12°C° 0 mm 3 mps 766 mmHg 89%
    10:00 +13°C° 0 mm 3 mps 765 mmHg 80%
    11:00 +16°C° 0 mm 3 mps 765 mmHg 70%
    12:00 +17°C° 0 mm 3 mps 764 mmHg 60%
    13:00 +17°C° 0 mm 3 mps 764 mmHg 58%
    14:00 +18°C° 0 mm 3 mps 763 mmHg 55%
    15:00 +18°C° 0 mm 3 mps 763 mmHg 52%
    16:00 +16°C° 0 mm 3 mps 763 mmHg 61%
    17:00 +13°C° 0 mm 3 mps 763 mmHg 71%
    18:00 +11°C° 0 mm 3 mps 763 mmHg 80%
    19:00 +11°C° 0 mm 3 mps 763 mmHg 80%
    20:00 +11°C° 0 mm 3 mps 763 mmHg 81%
    21:00 +11°C° 0 mm 3 mps 763 mmHg 81%
    22:00 +11°C° 0 mm 4 mps 763 mmHg 79%
    23:00 +11°C° 0 mm 4 mps 763 mmHg 78%

    Day after tomorrow, 19 December, Wednesday

    Time Temperature Precipitation Wind Pressure Humidity
    00:00 +11°C° 0 mm 4 mps 762 mmHg 76%
    01:00 +12°C° 0 mm 4 mps 762 mmHg 72%
    02:00 +12°C° 0 mm 4 mps 762 mmHg 68%
    03:00 +13°C° 0 mm 4 mps 762 mmHg 65%
    04:00 +13°C° 0 mm 3 mps 762 mmHg 65%
    05:00 +13°C° 0 mm 3 mps 762 mmHg 65%
    06:00 +12°C° 0 mm 3 mps 761 mmHg 65%
    07:00 +13°C° 0 mm 3 mps 762 mmHg 64%
    08:00 +15°C° 0 mm 2 mps 762 mmHg 62%
    09:00 +16°C° 0 mm 2 mps 762 mmHg 60%
    10:00 +17°C° 0 mm 2 mps 762 mmHg 57%
    11:00 +18°C° 0 mm 2 mps 762 mmHg 54%
    12:00 +20°C° 0 mm 2 mps 762 mmHg 51%
    13:00 +19°C° 0 mm 3 mps 762 mmHg 46%
    14:00 +19°C° 0 mm 4 mps 762 mmHg 41%
    15:00 +17°C° 0 mm 5 mps 762 mmHg 35%
    16:00 +16°C° 0 mm 5 mps 762 mmHg 41%
    17:00 +14°C° 0 mm 6 mps 763 mmHg 46%
    18:00 +13°C° 0 mm 6 mps 763 mmHg 52%
    19:00 +12°C° 0 mm 7 mps 764 mmHg 56%
    20:00 +11°C° 0 mm 7 mps 764 mmHg 60%
    21:00 +11°C° 0 mm 7 mps 765 mmHg 64%
    22:00 +10°C° 0 mm 7 mps 765 mmHg 69%
    23:00 +10°C° 0 mm 6 mps 765 mmHg 75%

    20 December, Thursday

    Time Temperature Precipitation Wind Pressure Humidity
    00:00 +9°C° 0 mm 6 mps 765 mmHg 80%
    01:00 +9°C° 0 mm 6 mps 765 mmHg 80%
    02:00 +9°C° 0 mm 6 mps 765 mmHg 81%
    03:00 +9°C° 0 mm 5 mps 765 mmHg 81%
    04:00 +9°C° 0 mm 5 mps 766 mmHg 80%
    05:00 +9°C° 0 mm 5 mps 766 mmHg 80%
    06:00 +9°C° 0 mm 5 mps 766 mmHg 79%
    07:00 +11°C° 0 mm 4 mps 766 mmHg 78%
    08:00 +11°C° 0 mm 4 mps 767 mmHg 77%
    09:00 +12°C° 0 mm 3 mps 767 mmHg 76%
    10:00 +13°C° 0 mm 3 mps 767 mmHg 70%
    11:00 +14°C° 0 mm 3 mps 767 mmHg 65%
    12:00 +16°C° 0 mm 3 mps 767 mmHg 60%
    13:00 +16°C° 0 mm 2 mps 766 mmHg 56%
    14:00 +17°C° 0 mm 2 mps 766 mmHg 53%
    15:00 +17°C° 0 mm 2 mps 766 mmHg 50%
    16:00 +16°C° 0 mm 2 mps 766 mmHg 54%
    17:00 +14°C° 0 mm 2 mps 766 mmHg 59%
    18:00 +13°C° 0 mm 2 mps 767 mmHg 64%
    19:00 +13°C° 0 mm 2 mps 767 mmHg 65%
    20:00 +12°C° 0 mm 2 mps 768 mmHg 67%
    21:00 +12°C° 0 mm 2 mps 768 mmHg 68%
    22:00 +10°C° 0 mm 2 mps 768 mmHg 69%
    23:00 +10°C° 0 mm 2 mps 768 mmHg 70%

    21 December, Friday

    Time Temperature Precipitation Wind Pressure Humidity
    00:00 +10°C° 0 mm 2 mps 768 mmHg 71%
    01:00 +10°C° 0 mm 2 mps 768 mmHg 72%
    02:00 +9°C° 0 mm 2 mps 768 mmHg 72%
    03:00 +9°C° 0 mm 2 mps 768 mmHg 73%
    04:00 +9°C° 0 mm 2 mps 768 mmHg 75%
    05:00 +9°C° 0 mm 2 mps 768 mmHg 76%
    06:00 +9°C° 0 mm 2 mps 768 mmHg 78%
    07:00 +10°C° 0 mm 2 mps 769 mmHg 74%
    08:00 +12°C° 0 mm 2 mps 769 mmHg 70%
    09:00 +13°C° 0 mm 2 mps 769 mmHg 66%
    10:00 +15°C° 0 mm 2 mps 769 mmHg 60%
    11:00 +16°C° 0 mm 2 mps 769 mmHg 54%
    12:00 +18°C° 0 mm 3 mps 769 mmHg 48%
    13:00 +19°C° 0 mm 3 mps 768 mmHg 47%
    14:00 +19°C° 0 mm 4 mps 768 mmHg 46%
    15:00 +20°C° 0 mm 4 mps 768 mmHg 46%
    16:00 +18°C° 0 mm 4 mps 768 mmHg 51%
    17:00 +16°C° 0 mm 5 mps 768 mmHg 56%
    18:00 +14°C° 0 mm 5 mps 768 mmHg 61%
    19:00 +14°C° 0 mm 5 mps 769 mmHg 64%
    20:00 +13°C° 0 mm 4 mps 769 mmHg 66%
    21:00 +13°C° 0 mm 4 mps 769 mmHg 68%
    22:00 +13°C° 0 mm 4 mps 769 mmHg 71%
    23:00 +12°C° 0 mm 4 mps 769 mmHg 73%

    22 December, Saturday

    Time Temperature Precipitation Wind Pressure Humidity
    00:00 +12°C° 0 mm 4 mps 769 mmHg 76%
    01:00 +12°C° 0 mm 3 mps 768 mmHg 77%
    02:00 +12°C° 0 mm 3 mps 768 mmHg 78%
    03:00 +12°C° 0 mm 3 mps 768 mmHg 79%
    04:00 +11°C° 0 mm 3 mps 768 mmHg 79%
    05:00 +12°C° 0 mm 2 mps 768 mmHg 80%
    06:00 +12°C° 0 mm 2 mps 768 mmHg 80%
    07:00 +13°C° 0 mm 2 mps 769 mmHg 76%
    08:00 +15°C° 0 mm 2 mps 769 mmHg 72%
    09:00 +16°C° 0 mm 2 mps 769 mmHg 67%
    10:00 +17°C° 0 mm 2 mps 769 mmHg 61%
    11:00 +19°C° 0 mm 3 mps 769 mmHg 55%
    12:00 +21°C° 0 mm 3 mps 768 mmHg 49%
    13:00 +21°C° 0 mm 3 mps 768 mmHg 48%
    14:00 +22°C° 0 mm 3 mps 768 mmHg 46%
    15:00 +22°C° 0 mm 3 mps 767 mmHg 45%
    16:00 +20°C° 0 mm 3 mps 767 mmHg 52%
    17:00 +18°C° 0 mm 3 mps 768 mmHg 60%
    18:00 +14°C° 0 mm 3 mps 768 mmHg 68%
    19:00 +14°C° 0 mm 3 mps 768 mmHg 70%
    20:00 +13°C° 0 mm 3 mps 768 mmHg 72%
    21:00 +14°C° 0 mm 2 mps 768 mmHg 74%
    22:00 +14°C° 0 mm 2 mps 768 mmHg 75%
    23:00 +13°C° 0 mm 2 mps 768 mmHg 76%
    Show more